| time (UTC) | temp F | wind direction | speed knots | gust knots | rain 1hr in | rain 24hr in | rain mn in | humidity % | barometer mb |
| 20260506010002 | 46 | 119 | 7.0 | 10.4 | 0.00 | 0.01 | 0.00 | 80 | 1013.1 |
| 20260506004501 | 47 | 120 | 6.1 | 8.7 | 0.00 | 0.01 | 0.00 | 80 | 1013.2 |
| 20260506003002 | 47 | 118 | 7.8 | 10.4 | 0.00 | 0.01 | 0.00 | 80 | 1013.3 |
| 20260506001600 | 47 | 118 | 7.8 | 10.4 | 0.00 | 0.01 | 0.00 | 81 | 1013.2 |
| 20260506000100 | 47 | 121 | 7.8 | 9.6 | 0.00 | 0.01 | 0.00 | 82 | 1013.2 |
| 20260505234557 | 47 | 122 | 7.8 | 10.4 | 0.00 | 0.01 | 0.00 | 82 | 1013.2 |
| 20260505233104 | 47 | 152 | 6.1 | 8.7 | 0.00 | 0.01 | 0.00 | 83 | 1013.2 |
| 20260505231607 | 47 | 211 | 1.7 | 4.3 | 0.00 | 0.01 | 0.00 | 81 | 1013.1 |
| 20260505230051 | 47 | 212 | 1.7 | 3.5 | 0.00 | 0.01 | 0.00 | 81 | 1013.1 |
| 20260505224554 | 47 | 208 | 1.7 | 3.5 | 0.00 | 0.01 | 0.01 | 81 | 1013.2 |
| 20260505223049 | 47 | 204 | 1.7 | 3.5 | 0.00 | 0.01 | 0.01 | 81 | 1013.2 |
| 20260505221549 | 47 | 204 | 0.9 | 2.6 | 0.00 | 0.01 | 0.01 | 80 | 1013.2 |
| 20260505220051 | 48 | 220 | 1.7 | 4.3 | 0.00 | 0.01 | 0.01 | 80 | 1013.2 |
| 20260505214555 | 49 | 232 | 2.6 | 3.5 | 0.00 | 0.01 | 0.01 | 79 | 1013.1 |
| 20260505213047 | 49 | 323 | 1.7 | 2.6 | 0.00 | 0.01 | 0.01 | 79 | 1013.1 |
| 20260505211547 | 50 | 349 | 0.9 | 4.3 | 0.00 | 0.01 | 0.01 | 79 | 1013.2 |
| 20260505210047 | 51 | 305 | 0.9 | 3.5 | 0.00 | 0.01 | 0.01 | 79 | 1013.2 |
| 20260505204545 | 51 | 345 | 1.7 | 3.5 | 0.00 | 0.01 | 0.01 | 79 | 1013.2 |
| 20260505203105 | 51 | 329 | 2.6 | 5.2 | 0.00 | 0.01 | 0.01 | 78 | 1013.2 |
| 20260505201547 | 50 | 350 | 2.6 | 5.2 | 0.00 | 0.01 | 0.01 | 78 | 1013.3 |
| 20260505200050 | 51 | 343 | 2.6 | 4.3 | 0.00 | 0.01 | 0.01 | 78 | 1013.3 |
| 20260505194544 | 51 | 332 | 2.6 | 4.3 | 0.00 | 0.01 | 0.01 | 77 | 1013.2 |
| 20260505193044 | 51 | 336 | 2.6 | 5.2 | 0.00 | 0.01 | 0.01 | 76 | 1013.1 |
| 20260505191547 | 51 | 315 | 0.9 | 3.5 | 0.00 | 0.01 | 0.01 | 75 | 1013.0 |
| 20260505190045 | 51 | 340 | 0.9 | 4.3 | 0.00 | 0.01 | 0.01 | 74 | 1012.9 |
| 20260505184542 | 52 | 301 | 1.7 | 5.2 | 0.00 | 0.01 | 0.01 | 73 | 1013.0 |
| 20260505183043 | 52 | 359 | 1.7 | 7.0 | 0.00 | 0.01 | 0.01 | 73 | 1012.9 |
| 20260505181544 | 52 | 311 | 4.3 | 8.7 | 0.00 | 0.01 | 0.01 | 74 | 1013.0 |
| 20260505180039 | 52 | 287 | 2.6 | 7.8 | 0.00 | 0.01 | 0.01 | 74 | 1013.0 |
| 20260505174542 | 53 | 286 | 4.3 | 7.8 | 0.00 | 0.01 | 0.01 | 73 | 1013.0 |
| 20260505173039 | 53 | 333 | 3.5 | 8.7 | 0.00 | 0.01 | 0.01 | 73 | 1013.0 |
| 20260505171543 | 53 | 296 | 3.5 | 7.0 | 0.00 | 0.01 | 0.01 | 74 | 1013.1 |
| 20260505170052 | 53 | 340 | 6.1 | 9.6 | 0.00 | 0.01 | 0.01 | 75 | 1013.2 |
| 20260505164541 | 53 | 288 | 5.2 | 10.4 | 0.00 | 0.01 | 0.01 | 75 | 1013.2 |
| 20260505163037 | 53 | 308 | 7.0 | 9.6 | 0.00 | 0.01 | 0.01 | 75 | 1013.2 |
| 20260505161536 | 53 | 264 | 6.1 | 11.3 | 0.00 | 0.01 | 0.01 | 75 | 1013.2 |
| 20260505153037 | 53 | 323 | 2.6 | 7.0 | 0.00 | 0.01 | 0.01 | 74 | 1013.2 |
| 20260505151550 | 53 | 354 | 1.7 | 4.3 | 0.00 | 0.01 | 0.01 | 76 | 1013.1 |
| 20260505124523 | 55 | 275 | 5.2 | 9.6 | 0.00 | 0.01 | 0.01 | 76 | 1013.5 |
| 20260505123022 | 54 | 332 | 3.5 | 7.8 | 0.00 | 0.01 | 0.01 | 79 | 1013.4 |
| 20260505121523 | 53 | 344 | 3.5 | 9.6 | 0.00 | 0.01 | 0.01 | 79 | 1013.5 |
| 20260505120021 | 55 | 336 | 7.0 | 9.6 | 0.00 | 0.01 | 0.01 | 77 | 1013.5 |
| 20260505114520 | 55 | 25 | 3.5 | 10.4 | 0.00 | 0.01 | 0.01 | 79 | 1013.6 |
| 20260505113021 | 54 | 354 | 3.5 | 7.8 | 0.00 | 0.01 | 0.01 | 79 | 1013.6 |
| 20260505111516 | 54 | 274 | 2.6 | 5.2 | 0.00 | 0.01 | 0.01 | 80 | 1013.6 |
| 20260505101513 | 50 | 342 | 8.7 | 11.3 | 0.00 | 0.01 | 0.01 | 85 | 1013.7 |
| 20260505100011 | 51 | 332 | 5.2 | 10.4 | 0.00 | 0.01 | 0.01 | 84 | 1013.7 |
| 20260505094508 | 51 | 4 | 3.5 | 9.6 | 0.00 | 0.01 | 0.01 | 84 | 1013.6 |
| 20260505093015 | 52 | 302 | 4.3 | 11.3 | 0.00 | 0.01 | 0.01 | 85 | 1013.6 |
| 20260505091507 | 52 | 222 | 7.8 | 12.2 | 0.00 | 0.01 | 0.01 | 85 | 1013.6 |
| 20260505090009 | 51 | 301 | 7.8 | 14.8 | 0.00 | 0.01 | 0.01 | 86 | 1013.6 |
| 20260505084508 | 51 | 292 | 8.7 | 13.0 | 0.00 | 0.01 | 0.01 | 86 | 1013.6 |
| 20260505083007 | 51 | 301 | 7.0 | 8.7 | 0.00 | 0.01 | 0.01 | 87 | 1013.6 |
| 20260505081502 | 51 | 318 | 6.1 | 9.6 | 0.00 | 0.01 | 0.01 | 87 | 1013.5 |
| 20260505080058 | 51 | 296 | 7.8 | 10.4 | 0.00 | 0.01 | 0.01 | 88 | 1013.6 |
| 20260505074556 | 50 | 299 | 5.2 | 9.6 | 0.00 | 0.01 | 0.01 | 88 | 1013.6 |
| 20260505073058 | 50 | 286 | 7.0 | 9.6 | 0.00 | 0.01 | 0.01 | 88 | 1013.6 |
| 20260505071553 | 50 | 297 | 6.1 | 8.7 | 0.00 | 0.01 | 0.01 | 88 | 1013.6 |
| 20260505070048 | 49 | 306 | 6.1 | 9.6 | 0.00 | 0.01 | 0.01 | 89 | 1013.6 |
| 20260505064548 | 49 | 258 | 1.7 | 4.3 | 0.00 | 0.01 | 0.01 | 88 | 1013.7 |
| 20260505063048 | 49 | 293 | 2.6 | 7.0 | 0.00 | 0.01 | 0.01 | 89 | 1013.8 |
| 20260505061548 | 48 | 359 | 1.7 | 4.3 | 0.00 | 0.01 | 0.01 | 88 | 1013.7 |
| 20260505060045 | 49 | 319 | 4.3 | 9.6 | 0.00 | 0.01 | 0.01 | 89 | 1013.7 |
| 20260505054545 | 49 | 50 | 1.7 | 8.7 | 0.00 | 0.01 | 0.01 | 90 | 1013.6 |
| 20260505053044 | 47 | 293 | 2.6 | 8.7 | 0.00 | 0.01 | 0.01 | 91 | 1013.6 |
| 20260505051538 | 46 | 231 | 0.9 | 6.1 | 0.00 | 0.01 | 0.01 | 90 | 1013.4 |
| 20260505041535 | 45 | 233 | 2.6 | 4.3 | 0.00 | 0.02 | 0.01 | 90 | 1013.3 |
| 20260505040034 | 45 | 230 | 2.6 | 7.0 | 0.01 | 0.02 | 0.01 | 90 | 1013.4 |
| 20260505034535 | 45 | 233 | 1.7 | 6.1 | 0.01 | 0.02 | 0.01 | 90 | 1013.3 |
| 20260505033052 | 45 | 228 | 2.6 | 7.0 | 0.01 | 0.02 | 0.01 | 90 | 1013.3 |
| 20260505031531 | 45 | 234 | 2.6 | 4.3 | 0.01 | 0.02 | 0.01 | 90 | 1013.5 |
| 20260505030030 | 45 | 233 | 2.6 | 4.3 | 0.00 | 0.01 | 0.00 | 90 | 1013.5 |
| 20260505024529 | 44 | 227 | 1.7 | 6.1 | 0.00 | 0.01 | 0.00 | 89 | 1013.5 |
| 20260505023027 | 45 | 228 | 1.7 | 3.5 | 0.00 | 0.01 | 0.00 | 89 | 1013.6 |
| 20260505021528 | 45 | 227 | 1.7 | 4.3 | 0.00 | 0.01 | 0.00 | 89 | 1013.6 |
| 20260505020024 | 45 | 229 | 2.6 | 5.2 | 0.00 | 0.01 | 0.00 | 89 | 1013.7 |
| 20260505014522 | 45 | 233 | 2.6 | 4.3 | 0.00 | 0.01 | 0.00 | 89 | 1013.8 |
| 20260505013019 | 46 | 223 | 2.6 | 4.3 | 0.00 | 0.01 | 0.00 | 89 | 1013.9 |
| 20260505011520 | 46 | 242 | 1.7 | 3.5 | 0.00 | 0.01 | 0.00 | 88 | 1013.9 |